Location: La Pernelle
(49.6188°N, 1.2999°W)
Time: 04:42:41
(UTC+00:00)

NOSS 3-2 (A) - Pass Details

Date: 24 October 2021
Orbit: 771 x 1437 km, 63.4° (Epoch: 21 November)

Event Time Altitude Azimuth Distance (km) Brightness Sun altitude
Rises 18:02:42 0° 301° (WNW) 3,658 7.4 -11.3°
Reaches altitude 10° 18:05:34 10° 314° (NW) 2,812 6.5 -11.7°
Maximum altitude 18:11:14 28° 12° (NNE) 1,990 5.0 -12.7°
Enters shadow 18:16:29 14° 62° (ENE) 2,894 5.4 -13.5°
